Year,Month,Day,Hour,Minute,Value (Times are PST for temperature in C)
2010,03,18,00,00,2.30
2010,03,18,00,01,2.30
2010,03,18,00,02,2.30
2010,03,18,00,03,2.20
2010,03,18,00,04,2.20
2010,03,18,00,05,2.20
2010,03,18,00,06,2.20
2010,03,18,00,07,2.20
2010,03,18,00,08,2.20
2010,03,18,00,09,2.20
2010,03,18,00,10,2.10
2010,03,18,00,11,2.10
2010,03,18,00,12,2.10
2010,03,18,00,13,2.10
2010,03,18,00,14,2.00
2010,03,18,00,15,2.00
2010,03,18,00,16,2.00
2010,03,18,00,17,2.00
2010,03,18,00,18,2.00
2010,03,18,00,19,2.00
2010,03,18,00,20,2.00
2010,03,18,00,21,2.00
2010,03,18,00,22,2.00
2010,03,18,00,23,2.00
2010,03,18,00,24,2.00
2010,03,18,00,25,2.00
2010,03,18,00,26,1.90
2010,03,18,00,27,1.90
2010,03,18,00,28,1.90
2010,03,18,00,29,1.90
2010,03,18,00,30,1.90
2010,03,18,00,31,1.90
2010,03,18,00,32,1.90
2010,03,18,00,33,1.90
2010,03,18,00,34,1.90
2010,03,18,00,35,1.90
2010,03,18,00,36,1.90
2010,03,18,00,37,1.90
2010,03,18,00,38,1.90
2010,03,18,00,39,1.90
2010,03,18,00,40,1.90
2010,03,18,00,41,1.90
2010,03,18,00,42,1.90
2010,03,18,00,43,1.80
2010,03,18,00,44,1.80
2010,03,18,00,45,1.80
2010,03,18,00,46,1.80
2010,03,18,00,47,1.80
2010,03,18,00,48,1.80
2010,03,18,00,49,1.80
2010,03,18,00,50,1.80
2010,03,18,00,51,1.80
2010,03,18,00,52,1.80
2010,03,18,00,53,1.80
2010,03,18,00,54,1.80
2010,03,18,00,55,1.70
2010,03,18,00,56,1.70
2010,03,18,00,57,1.70
2010,03,18,00,58,1.70
2010,03,18,00,59,1.70
2010,03,18,01,00,1.70
2010,03,18,01,01,1.60
2010,03,18,01,02,1.60
2010,03,18,01,03,1.60
2010,03,18,01,04,1.60
2010,03,18,01,05,1.60
2010,03,18,01,06,1.60
2010,03,18,01,07,1.60
2010,03,18,01,08,1.60
2010,03,18,01,09,1.50
2010,03,18,01,10,1.50
2010,03,18,01,11,1.50
2010,03,18,01,12,1.50
2010,03,18,01,13,1.50
2010,03,18,01,14,1.40
2010,03,18,01,15,1.40
2010,03,18,01,16,1.40
2010,03,18,01,17,1.40
2010,03,18,01,18,1.40
2010,03,18,01,19,1.40
2010,03,18,01,20,1.40
2010,03,18,01,21,1.40
2010,03,18,01,22,1.40
2010,03,18,01,23,1.40
2010,03,18,01,24,1.40
2010,03,18,01,25,1.40
2010,03,18,01,26,1.40
2010,03,18,01,27,1.40
2010,03,18,01,28,1.40
2010,03,18,01,29,1.40
2010,03,18,01,30,1.40
2010,03,18,01,31,1.40
2010,03,18,01,32,1.40
2010,03,18,01,33,1.30
2010,03,18,01,34,1.30
2010,03,18,01,35,1.30
2010,03,18,01,36,1.30
2010,03,18,01,37,1.30
2010,03,18,01,38,1.30
2010,03,18,01,39,1.30
2010,03,18,01,40,1.30
2010,03,18,01,41,1.30
2010,03,18,01,42,1.30
2010,03,18,01,43,1.30
2010,03,18,01,44,1.30
2010,03,18,01,45,1.30
2010,03,18,01,46,1.30
2010,03,18,01,47,1.30
2010,03,18,01,48,1.30
2010,03,18,01,49,1.30
2010,03,18,01,50,1.30
2010,03,18,01,51,1.30
2010,03,18,01,52,1.30
2010,03,18,01,53,1.30
2010,03,18,01,54,1.30
2010,03,18,01,55,1.30
2010,03,18,01,56,1.30
2010,03,18,01,57,1.30
2010,03,18,01,58,1.30
2010,03,18,01,59,1.30
2010,03,18,02,00,1.30
2010,03,18,02,01,1.30
2010,03,18,02,02,1.30
2010,03,18,02,03,1.30
2010,03,18,02,04,1.30
2010,03,18,02,05,1.30
2010,03,18,02,06,1.30
2010,03,18,02,07,1.30
2010,03,18,02,08,1.30
2010,03,18,02,09,1.30
2010,03,18,02,10,1.30
2010,03,18,02,11,1.30
2010,03,18,02,12,1.30
2010,03,18,02,13,1.30
2010,03,18,02,14,1.30
2010,03,18,02,15,1.30
2010,03,18,02,16,1.30
2010,03,18,02,17,1.30
2010,03,18,02,18,1.30
2010,03,18,02,19,1.30
2010,03,18,02,20,1.30
2010,03,18,02,21,1.20
2010,03,18,02,22,1.30
2010,03,18,02,23,1.20
2010,03,18,02,24,1.20
2010,03,18,02,25,1.20
2010,03,18,02,26,1.20
2010,03,18,02,27,1.20
2010,03,18,02,28,1.20
2010,03,18,02,29,1.20
2010,03,18,02,30,1.20
2010,03,18,02,31,1.20
2010,03,18,02,32,1.20
2010,03,18,02,33,1.20
2010,03,18,02,34,1.20
2010,03,18,02,35,1.20
2010,03,18,02,36,1.20
2010,03,18,02,37,1.20
2010,03,18,02,38,1.20
2010,03,18,02,39,1.20
2010,03,18,02,40,1.20
2010,03,18,02,41,1.20
2010,03,18,02,42,1.20
2010,03,18,02,43,1.10
2010,03,18,02,44,1.10
2010,03,18,02,45,1.10
2010,03,18,02,46,1.10
2010,03,18,02,47,1.10
2010,03,18,02,48,1.10
2010,03,18,02,49,1.10
2010,03,18,02,50,1.00
2010,03,18,02,51,1.00
2010,03,18,02,52,1.00
2010,03,18,02,53,1.00
2010,03,18,02,54,1.00
2010,03,18,02,55,0.90
2010,03,18,02,56,0.90
2010,03,18,02,57,0.90
2010,03,18,02,58,0.90
2010,03,18,02,59,0.90
2010,03,18,03,00,1.00
2010,03,18,03,01,0.90
2010,03,18,03,02,0.90
2010,03,18,03,03,0.90
2010,03,18,03,04,0.90
2010,03,18,03,05,0.90
2010,03,18,03,06,0.90
2010,03,18,03,07,0.90
2010,03,18,03,08,0.90
2010,03,18,03,09,0.90
2010,03,18,03,10,0.90
2010,03,18,03,11,0.90
2010,03,18,03,12,0.90
2010,03,18,03,13,0.90
2010,03,18,03,14,0.90
2010,03,18,03,15,0.90
2010,03,18,03,16,0.80
2010,03,18,03,17,0.80
2010,03,18,03,18,0.80
2010,03,18,03,19,0.80
2010,03,18,03,20,0.80
2010,03,18,03,21,0.80
2010,03,18,03,22,0.80
2010,03,18,03,23,0.80
2010,03,18,03,24,0.80
2010,03,18,03,25,0.80
2010,03,18,03,26,0.80
2010,03,18,03,27,0.70
2010,03,18,03,28,0.70
2010,03,18,03,29,0.70
2010,03,18,03,30,0.70
2010,03,18,03,31,0.70
2010,03,18,03,32,0.70
2010,03,18,03,33,0.70
2010,03,18,03,34,0.70
2010,03,18,03,35,0.70
2010,03,18,03,36,0.60
2010,03,18,03,37,0.60
2010,03,18,03,38,0.60
2010,03,18,03,39,0.60
2010,03,18,03,40,0.60
2010,03,18,03,41,0.60
2010,03,18,03,42,0.60
2010,03,18,03,43,0.50
2010,03,18,03,44,0.50
2010,03,18,03,45,0.50
2010,03,18,03,46,0.50
2010,03,18,03,47,0.50
2010,03,18,03,48,0.50
2010,03,18,03,49,0.50
2010,03,18,03,50,0.40
2010,03,18,03,51,0.40
2010,03,18,03,52,0.40
2010,03,18,03,53,0.40
2010,03,18,03,54,0.40
2010,03,18,03,55,0.40
2010,03,18,03,56,0.40
2010,03,18,03,57,0.40
2010,03,18,03,58,0.40
2010,03,18,03,59,0.50
2010,03,18,04,00,0.50
2010,03,18,04,01,0.50
2010,03,18,04,02,0.40
2010,03,18,04,03,0.40
2010,03,18,04,04,0.40
2010,03,18,04,05,0.40
2010,03,18,04,06,0.40
2010,03,18,04,07,0.40
2010,03,18,04,08,0.30
2010,03,18,04,09,0.30
2010,03,18,04,10,0.30
2010,03,18,04,11,0.30
2010,03,18,04,12,0.30
2010,03,18,04,13,0.20
2010,03,18,04,14,0.20
2010,03,18,04,15,0.20
2010,03,18,04,16,0.20
2010,03,18,04,17,0.20
2010,03,18,04,18,0.20
2010,03,18,04,19,0.20
2010,03,18,04,20,0.20
2010,03,18,04,21,0.10
2010,03,18,04,22,0.10
2010,03,18,04,23,0.10
2010,03,18,04,24,0.10
2010,03,18,04,25,0.10
2010,03,18,04,26,0.10
2010,03,18,04,27,0.10
2010,03,18,04,28,0.10
2010,03,18,04,29,0.10
2010,03,18,04,30,0.00
2010,03,18,04,31,0.00
2010,03,18,04,32,0.00
2010,03,18,04,33,0.00
2010,03,18,04,34,0.00
2010,03,18,04,35,-0.10
2010,03,18,04,36,-0.10
2010,03,18,04,37,-0.10
2010,03,18,04,38,-0.10
2010,03,18,04,39,-0.10
2010,03,18,04,40,-0.20
2010,03,18,04,41,-0.20
2010,03,18,04,42,-0.20
2010,03,18,04,43,-0.20
2010,03,18,04,44,-0.20
2010,03,18,04,45,-0.30
2010,03,18,04,46,-0.30
2010,03,18,04,47,-0.30
2010,03,18,04,48,-0.30
2010,03,18,04,49,-0.30
2010,03,18,04,50,-0.30
2010,03,18,04,51,-0.40
2010,03,18,04,52,-0.40
2010,03,18,04,53,-0.40
2010,03,18,04,54,-0.40
2010,03,18,04,55,-0.40
2010,03,18,04,56,-0.40
2010,03,18,04,57,-0.40
2010,03,18,04,58,-0.40
2010,03,18,04,59,-0.40
2010,03,18,05,00,-0.40
2010,03,18,05,01,-0.40
2010,03,18,05,02,-0.40
2010,03,18,05,03,-0.40
2010,03,18,05,04,-0.40
2010,03,18,05,05,-0.40
2010,03,18,05,06,-0.40
2010,03,18,05,07,-0.40
2010,03,18,05,08,-0.40
2010,03,18,05,09,-0.40
2010,03,18,05,10,-0.40
2010,03,18,05,11,-0.40
2010,03,18,05,12,-0.40
2010,03,18,05,13,-0.40
2010,03,18,05,14,-0.40
2010,03,18,05,15,-0.40
2010,03,18,05,16,-0.40
2010,03,18,05,17,-0.40
2010,03,18,05,18,-0.40
2010,03,18,05,19,-0.40
2010,03,18,05,20,-0.40
2010,03,18,05,21,-0.30
2010,03,18,05,22,-0.40
2010,03,18,05,23,-0.40
2010,03,18,05,24,-0.40
2010,03,18,05,25,-0.40
2010,03,18,05,26,-0.40
2010,03,18,05,27,-0.40
2010,03,18,05,28,-0.40
2010,03,18,05,29,-0.40
2010,03,18,05,30,-0.40
2010,03,18,05,31,-0.40
2010,03,18,05,32,-0.40
2010,03,18,05,33,-0.40
2010,03,18,05,34,-0.40
2010,03,18,05,35,-0.40
2010,03,18,05,36,-0.40
2010,03,18,05,37,-0.40
2010,03,18,05,38,-0.40
2010,03,18,05,39,-0.40
2010,03,18,05,40,-0.40
2010,03,18,05,41,-0.40
2010,03,18,05,42,-0.40
2010,03,18,05,43,-0.40
2010,03,18,05,44,-0.40
2010,03,18,05,45,-0.40
2010,03,18,05,46,-0.50
2010,03,18,05,47,-0.50
2010,03,18,05,48,-0.50
2010,03,18,05,49,-0.50
2010,03,18,05,50,-0.50
2010,03,18,05,51,-0.60
2010,03,18,05,52,-0.60
2010,03,18,05,53,-0.60
2010,03,18,05,54,-0.50
2010,03,18,05,55,-0.50
2010,03,18,05,56,-0.50
2010,03,18,05,57,-0.50
2010,03,18,05,58,-0.50
2010,03,18,05,59,-0.50
2010,03,18,06,00,-0.50
2010,03,18,06,01,-0.50
2010,03,18,06,02,-0.50
2010,03,18,06,03,-0.50
2010,03,18,06,04,-0.50
2010,03,18,06,05,-0.50
2010,03,18,06,06,-0.50
2010,03,18,06,07,-0.50
2010,03,18,06,08,-0.50
2010,03,18,06,09,-0.50
2010,03,18,06,10,-0.50
2010,03,18,06,11,-0.50
2010,03,18,06,12,-0.50
2010,03,18,06,13,-0.50
2010,03,18,06,14,-0.50
2010,03,18,06,15,-0.50
2010,03,18,06,16,-0.60
2010,03,18,06,17,-0.50
2010,03,18,06,18,-0.60
2010,03,18,06,19,-0.60
2010,03,18,06,20,-0.60
2010,03,18,06,21,-0.60
2010,03,18,06,22,-0.60
2010,03,18,06,23,-0.60
2010,03,18,06,24,-0.70
2010,03,18,06,25,-0.70
2010,03,18,06,26,-0.60
2010,03,18,06,27,-0.60
2010,03,18,06,28,-0.60
2010,03,18,06,29,-0.60
2010,03,18,06,30,-0.60
2010,03,18,06,31,-0.60
2010,03,18,06,32,-0.60
2010,03,18,06,33,-0.60
2010,03,18,06,34,-0.60
2010,03,18,06,35,-0.60
2010,03,18,06,36,-0.60
2010,03,18,06,37,-0.60
2010,03,18,06,38,-0.60
2010,03,18,06,39,-0.60
2010,03,18,06,40,-0.60
2010,03,18,06,41,-0.60
2010,03,18,08,05,-0.60
2010,03,18,08,06,-0.60
2010,03,18,08,07,-0.60
2010,03,18,08,08,-0.60
2010,03,18,08,09,-0.60
2010,03,18,08,10,-0.60
2010,03,18,08,11,-0.60
2010,03,18,08,12,-0.60
2010,03,18,08,13,-0.60
2010,03,18,08,14,-0.60
2010,03,18,08,15,-0.60
2010,03,18,08,16,-0.60
2010,03,18,08,17,-0.60
2010,03,18,08,18,-0.60
2010,03,18,08,19,-0.60
2010,03,18,08,20,-0.50
2010,03,18,08,21,-0.50
2010,03,18,08,22,-0.50
2010,03,18,08,23,-0.50
2010,03,18,08,24,-0.40
2010,03,18,08,25,-0.40
2010,03,18,08,26,-0.40
2010,03,18,08,27,-0.40
2010,03,18,08,28,-0.40
2010,03,18,08,29,-0.40
2010,03,18,08,30,-0.40
2010,03,18,08,31,-0.40
2010,03,18,08,32,-0.40
2010,03,18,08,33,-0.40
2010,03,18,08,34,-0.40
2010,03,18,08,35,-0.30
2010,03,18,08,36,-0.30
2010,03,18,08,37,-0.30
2010,03,18,08,38,-0.30
2010,03,18,08,39,-0.30
2010,03,18,08,40,-0.30
2010,03,18,08,41,-0.30
2010,03,18,08,42,-0.20
2010,03,18,08,43,-0.20
2010,03,18,08,44,-0.20
2010,03,18,08,45,-0.20
2010,03,18,08,46,-0.20
2010,03,18,08,47,-0.20
2010,03,18,08,48,-0.10
2010,03,18,08,49,-0.10
2010,03,18,08,50,-0.10
2010,03,18,08,51,-0.10
2010,03,18,08,52,0.00
2010,03,18,08,53,0.00
2010,03,18,08,54,0.00
2010,03,18,08,55,0.10
2010,03,18,08,56,0.10
2010,03,18,08,57,0.10
2010,03,18,08,58,0.10
2010,03,18,08,59,0.10
2010,03,18,09,00,0.20
2010,03,18,09,01,0.20
2010,03,18,09,02,0.20
2010,03,18,09,03,0.20
2010,03,18,09,04,0.30
2010,03,18,09,05,0.30
2010,03,18,09,06,0.30
2010,03,18,09,07,0.30
2010,03,18,09,08,0.30
2010,03,18,09,09,0.40
2010,03,18,09,10,0.40
2010,03,18,09,11,0.50
2010,03,18,09,12,0.50
2010,03,18,09,13,0.60
2010,03,18,09,14,0.60
2010,03,18,09,15,0.60
2010,03,18,09,16,0.70
2010,03,18,09,17,0.70
2010,03,18,09,18,0.80
2010,03,18,09,19,0.80
2010,03,18,09,20,0.80
2010,03,18,09,21,0.90
2010,03,18,09,22,0.90
2010,03,18,09,23,1.00
2010,03,18,09,24,1.00
2010,03,18,09,25,1.10
2010,03,18,09,26,1.10
2010,03,18,09,27,1.20
2010,03,18,09,28,1.20
2010,03,18,09,29,1.20
2010,03,18,09,30,1.30
2010,03,18,09,31,1.30
2010,03,18,09,32,1.30
2010,03,18,09,33,1.30
2010,03,18,09,34,1.40
2010,03,18,09,35,1.40
2010,03,18,09,36,1.50
2010,03,18,09,37,1.60
2010,03,18,09,38,1.70
2010,03,18,09,39,1.80
2010,03,18,09,40,1.80
2010,03,18,09,41,1.80
2010,03,18,09,42,1.90
2010,03,18,09,43,2.00
2010,03,18,09,44,2.00
2010,03,18,09,45,2.10
2010,03,18,09,46,2.20
2010,03,18,09,47,2.20
2010,03,18,09,48,2.30
2010,03,18,09,49,2.30
2010,03,18,09,50,2.40
2010,03,18,09,51,2.40
2010,03,18,09,52,2.50
2010,03,18,09,53,2.50
2010,03,18,09,54,2.60
2010,03,18,09,55,2.60
2010,03,18,09,56,2.70
2010,03,18,09,57,2.70
2010,03,18,09,58,2.80
2010,03,18,09,59,2.80
2010,03,18,10,00,2.80
2010,03,18,10,01,2.80
2010,03,18,10,02,2.90
2010,03,18,10,03,3.00
2010,03,18,10,04,3.10
2010,03,18,10,05,3.10
2010,03,18,10,06,3.20
2010,03,18,10,07,3.30
2010,03,18,10,08,3.30
2010,03,18,10,09,3.40
2010,03,18,10,10,3.50
2010,03,18,10,11,3.60
2010,03,18,10,12,3.70
2010,03,18,10,13,3.80
2010,03,18,10,14,3.90
2010,03,18,10,15,4.00
2010,03,18,10,16,4.10
2010,03,18,10,17,4.10
2010,03,18,10,18,4.20
2010,03,18,10,19,4.20
2010,03,18,10,20,4.30
2010,03,18,10,21,4.30
2010,03,18,10,22,4.30
2010,03,18,10,23,4.30
2010,03,18,10,24,4.40
2010,03,18,10,25,4.40
2010,03,18,10,26,4.40
2010,03,18,10,27,4.40
2010,03,18,10,28,4.50
2010,03,18,10,29,4.60
2010,03,18,10,30,4.60
2010,03,18,10,31,4.70
2010,03,18,10,32,4.70
2010,03,18,10,33,4.70
2010,03,18,10,34,4.80
2010,03,18,10,35,4.80
2010,03,18,10,36,4.90
2010,03,18,10,37,4.90
2010,03,18,10,38,4.90
2010,03,18,10,39,5.00
2010,03,18,10,40,5.00
2010,03,18,10,41,5.00
2010,03,18,10,42,5.00
2010,03,18,10,43,5.10
2010,03,18,10,44,5.20
2010,03,18,10,45,5.20
2010,03,18,10,46,5.20
2010,03,18,10,47,5.20
2010,03,18,10,48,5.30
2010,03,18,10,49,5.30
2010,03,18,10,50,5.30
2010,03,18,10,51,5.40
2010,03,18,10,52,5.40
2010,03,18,10,53,5.40
2010,03,18,10,54,5.40
2010,03,18,10,55,5.40
2010,03,18,10,56,5.40
2010,03,18,10,57,5.40
2010,03,18,10,58,5.40
2010,03,18,10,59,5.40
2010,03,18,11,00,5.40
2010,03,18,11,01,5.40
2010,03,18,11,02,5.40
2010,03,18,11,03,5.50
2010,03,18,11,04,5.50
2010,03,18,11,05,5.50
2010,03,18,11,06,5.60
2010,03,18,11,07,5.60
2010,03,18,11,08,5.60
2010,03,18,11,09,5.60
2010,03,18,11,10,5.50
2010,03,18,11,11,5.50
2010,03,18,11,12,5.50
2010,03,18,11,13,5.50
2010,03,18,11,14,5.50
2010,03,18,11,15,5.50
2010,03,18,11,16,5.60
2010,03,18,11,17,5.60
2010,03,18,11,18,5.60
2010,03,18,11,19,5.60
2010,03,18,11,20,5.60
2010,03,18,11,21,5.60
2010,03,18,11,22,5.60
2010,03,18,11,23,5.60
2010,03,18,11,24,5.60
2010,03,18,11,25,5.60
2010,03,18,11,26,5.60
2010,03,18,11,27,5.60
2010,03,18,11,28,5.60
2010,03,18,11,29,5.60
2010,03,18,11,30,5.70
2010,03,18,11,31,5.70
2010,03,18,11,32,5.70
2010,03,18,11,33,5.70
2010,03,18,11,34,5.70
2010,03,18,11,35,5.70
2010,03,18,11,36,5.80
2010,03,18,11,37,5.80
2010,03,18,11,38,5.90
2010,03,18,11,39,6.00
2010,03,18,11,40,6.10
2010,03,18,11,41,6.10
2010,03,18,11,42,6.20
2010,03,18,11,43,6.20
2010,03,18,11,44,6.20
2010,03,18,11,45,6.20
2010,03,18,11,46,6.20
2010,03,18,11,47,6.20
2010,03,18,11,48,6.30
2010,03,18,11,49,6.30
2010,03,18,11,50,6.40
2010,03,18,11,51,6.40
2010,03,18,11,52,6.40
2010,03,18,11,53,6.40
2010,03,18,11,54,6.40
2010,03,18,11,55,6.40
2010,03,18,11,56,6.50
2010,03,18,11,57,6.50
2010,03,18,11,58,6.50
2010,03,18,11,59,6.50
2010,03,18,12,00,6.50
2010,03,18,12,01,6.50
2010,03,18,12,02,6.50
2010,03,18,12,03,6.50
2010,03,18,12,04,6.60
2010,03,18,12,05,6.60
2010,03,18,12,06,6.60
2010,03,18,12,07,6.60
2010,03,18,12,08,6.70
2010,03,18,12,09,6.70
2010,03,18,12,10,6.80
2010,03,18,12,11,6.90
2010,03,18,12,12,6.90
2010,03,18,12,13,7.00
2010,03,18,12,14,7.10
2010,03,18,12,15,7.20
2010,03,18,12,16,7.30
2010,03,18,12,17,7.40
2010,03,18,12,18,7.50
2010,03,18,12,19,7.60
2010,03,18,12,20,7.70
2010,03,18,12,21,7.60
2010,03,18,12,22,7.60
2010,03,18,12,23,7.60
2010,03,18,12,24,7.60
2010,03,18,12,25,7.70
2010,03,18,12,26,7.70
2010,03,18,12,27,7.70
2010,03,18,12,28,7.70
2010,03,18,12,29,7.80
2010,03,18,12,30,7.90
2010,03,18,12,31,8.00
2010,03,18,12,32,8.00
2010,03,18,12,33,8.10
2010,03,18,12,34,8.20
2010,03,18,12,35,8.20
2010,03,18,12,36,8.30
2010,03,18,12,37,8.30
2010,03,18,12,38,8.30
2010,03,18,12,39,8.40
2010,03,18,12,40,8.40
2010,03,18,12,41,8.40
2010,03,18,12,42,8.30
2010,03,18,12,43,8.30
2010,03,18,12,44,8.20
2010,03,18,12,45,8.20
2010,03,18,12,46,8.10
2010,03,18,12,47,8.00
2010,03,18,12,48,8.00
2010,03,18,12,49,7.90
2010,03,18,12,50,7.90
2010,03,18,12,51,7.90
2010,03,18,12,52,8.00
2010,03,18,12,53,8.00
2010,03,18,12,54,8.10
2010,03,18,12,55,8.20
2010,03,18,12,56,8.30
2010,03,18,12,57,8.40
2010,03,18,12,58,8.50
2010,03,18,12,59,8.50
2010,03,18,13,00,8.50
2010,03,18,13,01,8.40
2010,03,18,13,02,8.40
2010,03,18,13,03,8.40
2010,03,18,13,04,8.50
2010,03,18,13,05,8.50
2010,03,18,13,06,8.60
2010,03,18,13,07,8.70
2010,03,18,13,08,8.70
2010,03,18,13,09,8.70
2010,03,18,13,10,8.70
2010,03,18,13,11,8.70
2010,03,18,13,12,8.80
2010,03,18,13,13,8.80
2010,03,18,13,14,8.90
2010,03,18,13,15,9.00
2010,03,18,13,16,9.10
2010,03,18,13,17,9.20
2010,03,18,13,18,9.20
2010,03,18,13,19,9.30
2010,03,18,13,20,9.30
2010,03,18,13,21,9.40
2010,03,18,13,22,9.40
2010,03,18,13,23,9.50
2010,03,18,13,24,9.50
2010,03,18,13,25,9.60
2010,03,18,13,26,9.60
2010,03,18,13,27,9.70
2010,03,18,13,28,9.70
2010,03,18,13,29,9.80
2010,03,18,13,30,9.80
2010,03,18,13,31,9.90
2010,03,18,13,32,9.90
2010,03,18,13,33,9.90
2010,03,18,13,34,9.80
2010,03,18,13,35,9.70
2010,03,18,13,36,9.60
2010,03,18,13,37,9.50
2010,03,18,13,38,9.40
2010,03,18,13,39,9.20
2010,03,18,13,40,9.10
2010,03,18,13,41,9.00
2010,03,18,13,42,8.90
2010,03,18,13,43,8.90
2010,03,18,13,44,8.90
2010,03,18,13,45,9.00
2010,03,18,13,46,9.10
2010,03,18,13,47,9.20
2010,03,18,13,48,9.20
2010,03,18,13,49,9.20
2010,03,18,13,50,9.20
2010,03,18,13,51,9.10
2010,03,18,13,52,9.00
2010,03,18,13,53,8.90
2010,03,18,13,54,8.90
2010,03,18,13,55,8.90
2010,03,18,13,56,8.90
2010,03,18,13,57,8.90
2010,03,18,13,58,9.00
2010,03,18,13,59,9.00
2010,03,18,14,00,9.10
2010,03,18,14,01,9.20
2010,03,18,14,02,9.30
2010,03,18,14,03,9.40
2010,03,18,14,04,9.50
2010,03,18,14,05,9.50
2010,03,18,14,06,9.50
2010,03,18,14,07,9.40
2010,03,18,14,08,9.30
2010,03,18,14,09,9.30
2010,03,18,14,10,9.20
2010,03,18,14,11,9.20
2010,03,18,14,12,9.10
2010,03,18,14,13,9.10
2010,03,18,14,14,9.10
2010,03,18,14,15,9.10
2010,03,18,14,16,9.20
2010,03,18,14,17,9.20
2010,03,18,14,18,9.30
2010,03,18,14,19,9.40
2010,03,18,14,20,9.40
2010,03,18,14,21,9.50
2010,03,18,14,22,9.50
2010,03,18,14,23,9.60
2010,03,18,14,24,9.70
2010,03,18,14,25,9.70
2010,03,18,14,26,9.80
2010,03,18,14,27,9.90
2010,03,18,14,28,10.00
2010,03,18,14,29,10.00
2010,03,18,14,30,10.10
2010,03,18,14,31,10.20
2010,03,18,14,32,10.20
2010,03,18,14,33,10.20
2010,03,18,14,34,10.00
2010,03,18,14,35,9.90
2010,03,18,14,36,9.90
2010,03,18,14,37,9.90
2010,03,18,14,38,9.90
2010,03,18,14,39,10.00
2010,03,18,14,40,10.00
2010,03,18,14,41,10.10
2010,03,18,14,42,10.10
2010,03,18,14,43,10.10
2010,03,18,14,44,10.10
2010,03,18,14,45,10.10
2010,03,18,14,46,10.10
2010,03,18,14,47,10.00
2010,03,18,14,48,10.00
2010,03,18,14,49,10.00
2010,03,18,14,50,10.00
2010,03,18,14,51,9.90
2010,03,18,14,52,9.80
2010,03,18,14,53,9.80
2010,03,18,14,54,9.80
2010,03,18,14,55,9.80
2010,03,18,14,56,9.80
2010,03,18,14,57,9.80
2010,03,18,14,58,9.80
2010,03,18,14,59,9.80
2010,03,18,15,00,9.80
2010,03,18,15,01,9.80
2010,03,18,15,02,9.90
2010,03,18,15,03,10.00
2010,03,18,15,04,10.00
2010,03,18,15,05,10.10
2010,03,18,15,06,10.10
2010,03,18,15,07,10.20
2010,03,18,15,08,10.20
2010,03,18,15,09,10.20
2010,03,18,15,10,10.20
2010,03,18,15,11,10.20
2010,03,18,15,12,10.30
2010,03,18,15,13,10.30
2010,03,18,15,14,10.40
2010,03,18,15,15,10.50
2010,03,18,15,16,10.60
2010,03,18,15,17,10.60
2010,03,18,15,18,10.70
2010,03,18,15,19,10.70
2010,03,18,15,20,10.60
2010,03,18,15,21,10.50
2010,03,18,15,22,10.40
2010,03,18,15,23,10.30
2010,03,18,15,24,10.30
2010,03,18,15,25,10.20
2010,03,18,15,26,10.20
2010,03,18,15,27,10.30
2010,03,18,15,28,10.30
2010,03,18,15,29,10.30
2010,03,18,15,30,10.30
2010,03,18,15,31,10.40
2010,03,18,15,32,10.40
2010,03,18,15,33,10.40
2010,03,18,15,34,10.50
2010,03,18,15,35,10.50
2010,03,18,15,36,10.60
2010,03,18,15,37,10.60
2010,03,18,15,38,10.60
2010,03,18,15,39,10.60
2010,03,18,15,40,10.60
2010,03,18,15,41,10.50
2010,03,18,15,42,10.50
2010,03,18,15,43,10.50
2010,03,18,15,44,10.40
2010,03,18,15,45,10.40
2010,03,18,15,46,10.40
2010,03,18,15,47,10.20
2010,03,18,15,48,10.10
2010,03,18,15,49,10.00
2010,03,18,15,50,9.90
2010,03,18,15,51,9.90
2010,03,18,15,52,9.90
2010,03,18,15,53,9.80
2010,03,18,15,54,9.80
2010,03,18,15,55,9.80
2010,03,18,15,56,9.70
2010,03,18,15,57,9.70
2010,03,18,15,58,9.70
2010,03,18,15,59,9.70
2010,03,18,16,00,9.70
2010,03,18,16,01,9.80
2010,03,18,16,02,9.90
2010,03,18,16,03,9.90
2010,03,18,16,04,9.90
2010,03,18,16,05,10.00
2010,03,18,16,06,10.00
2010,03,18,16,07,10.00
2010,03,18,16,08,10.00
2010,03,18,16,09,9.90
2010,03,18,16,10,9.80
2010,03,18,16,11,9.80
2010,03,18,16,12,9.80
2010,03,18,16,13,9.90
2010,03,18,16,14,10.00
2010,03,18,16,15,10.10
2010,03,18,16,16,10.20
2010,03,18,16,17,10.30
2010,03,18,16,18,10.30
2010,03,18,16,19,10.40
2010,03,18,16,20,10.40
2010,03,18,16,21,10.50
2010,03,18,16,22,10.50
2010,03,18,16,23,10.50
2010,03,18,16,24,10.50
2010,03,18,16,25,10.40
2010,03,18,16,26,10.40
2010,03,18,16,27,10.40
2010,03,18,16,28,10.30
2010,03,18,16,29,10.30
2010,03,18,16,30,10.30
2010,03,18,16,31,10.30
2010,03,18,16,32,10.40
2010,03,18,16,33,10.50
2010,03,18,16,34,10.60
2010,03,18,16,35,10.70
2010,03,18,16,36,10.80
2010,03,18,16,37,10.80
2010,03,18,16,38,10.90
2010,03,18,16,39,10.80
2010,03,18,16,40,10.80
2010,03,18,16,41,10.70
2010,03,18,16,42,10.70
2010,03,18,16,43,10.70
2010,03,18,16,44,10.60
2010,03,18,16,45,10.60
2010,03,18,16,46,10.50
2010,03,18,16,47,10.50
2010,03,18,16,48,10.50
2010,03,18,16,49,10.40
2010,03,18,16,50,10.40
2010,03,18,16,51,10.40
2010,03,18,16,52,10.40
2010,03,18,16,53,10.40
2010,03,18,16,54,10.40
2010,03,18,16,55,10.40
2010,03,18,16,56,10.50
2010,03,18,16,57,10.60
2010,03,18,16,58,10.60
2010,03,18,16,59,10.70
2010,03,18,17,00,10.80
2010,03,18,17,01,10.80
2010,03,18,17,02,10.80
2010,03,18,17,03,10.80
2010,03,18,17,04,10.80
2010,03,18,17,05,10.90
2010,03,18,17,06,10.90
2010,03,18,17,07,11.00
2010,03,18,17,08,11.10
2010,03,18,17,09,11.10
2010,03,18,17,10,11.10
2010,03,18,17,11,11.10
2010,03,18,17,12,11.00
2010,03,18,17,13,10.90
2010,03,18,17,14,10.80
2010,03,18,17,15,10.70
2010,03,18,17,16,10.60
2010,03,18,17,17,10.60
2010,03,18,17,18,10.50
2010,03,18,17,19,10.50
2010,03,18,17,20,10.60
2010,03,18,17,21,10.60
2010,03,18,17,22,10.60
2010,03,18,17,23,10.70
2010,03,18,17,24,10.70
2010,03,18,17,25,10.80
2010,03,18,17,26,10.80
2010,03,18,17,27,10.90
2010,03,18,17,28,10.90
2010,03,18,17,29,11.00
2010,03,18,17,30,11.10
2010,03,18,17,31,11.10
2010,03,18,17,32,11.20
2010,03,18,17,33,11.20
2010,03,18,17,34,11.20
2010,03,18,17,35,11.30
2010,03,18,17,36,11.30
2010,03,18,17,37,11.30
2010,03,18,17,38,11.30
2010,03,18,17,39,11.20
2010,03,18,17,40,11.10
2010,03,18,17,41,11.00
2010,03,18,17,42,10.90
2010,03,18,17,43,10.90
2010,03,18,17,44,10.90
2010,03,18,17,45,10.90
2010,03,18,17,46,10.90
2010,03,18,17,47,10.90
2010,03,18,17,48,10.80
2010,03,18,17,49,10.80
2010,03,18,17,50,10.80
2010,03,18,17,51,10.80
2010,03,18,17,52,10.80
2010,03,18,17,53,10.80
2010,03,18,17,54,10.80
2010,03,18,17,55,10.80
2010,03,18,17,56,10.70
2010,03,18,17,57,10.70
2010,03,18,17,58,10.80
2010,03,18,17,59,10.80
2010,03,18,18,00,10.70
2010,03,18,18,01,10.60
2010,03,18,18,02,10.60
2010,03,18,18,03,10.60
2010,03,18,18,04,10.60
2010,03,18,18,05,10.60
2010,03,18,18,06,10.60
2010,03,18,18,07,10.50
2010,03,18,18,08,10.40
2010,03,18,18,09,10.30
2010,03,18,18,10,10.30
2010,03,18,18,11,10.30
2010,03,18,18,12,10.30
2010,03,18,18,13,10.30
2010,03,18,18,14,10.30
2010,03,18,18,15,10.20
2010,03,18,18,16,10.20
2010,03,18,18,17,10.20
2010,03,18,18,18,10.20
2010,03,18,18,19,10.20
2010,03,18,18,20,10.20
2010,03,18,18,21,10.20
2010,03,18,18,22,10.10
2010,03,18,18,23,10.10
2010,03,18,18,24,10.10
2010,03,18,18,25,10.00
2010,03,18,18,26,10.00
2010,03,18,18,27,9.90
2010,03,18,18,28,9.80
2010,03,18,18,29,9.80
2010,03,18,18,30,9.70
2010,03,18,18,31,9.70
2010,03,18,18,32,9.70
2010,03,18,18,33,9.70
2010,03,18,18,34,9.70
2010,03,18,18,35,9.60
2010,03,18,18,36,9.60
2010,03,18,18,37,9.50
2010,03,18,18,38,9.40
2010,03,18,18,39,9.40
2010,03,18,18,40,9.30
2010,03,18,18,41,9.30
2010,03,18,18,42,9.30
2010,03,18,18,43,9.20
2010,03,18,18,44,9.20
2010,03,18,18,45,9.20
2010,03,18,18,46,9.20
2010,03,18,18,47,9.10
2010,03,18,18,48,9.00
2010,03,18,18,49,9.00
2010,03,18,18,50,8.90
2010,03,18,18,51,8.90
2010,03,18,18,52,8.90
2010,03,18,18,53,8.80
2010,03,18,18,54,8.80
2010,03,18,18,55,8.70
2010,03,18,18,56,8.70
2010,03,18,18,57,8.60
2010,03,18,18,58,8.60
2010,03,18,18,59,8.50
2010,03,18,19,00,8.50
2010,03,18,19,01,8.40
2010,03,18,19,02,8.30
2010,03,18,19,03,8.30
2010,03,18,19,04,8.20
2010,03,18,19,05,8.20
2010,03,18,19,06,8.10
2010,03,18,19,07,8.10
2010,03,18,19,08,8.00
2010,03,18,19,09,7.90
2010,03,18,19,10,7.90
2010,03,18,19,11,7.80
2010,03,18,19,12,7.80